• In Portugal
  • List of Countries
  • For 7 days
  • Water Temperature
  • Satellite Maps
  • Weather Map
  • Weather Widgets
  • user-avatar
    Login

    Hourly Weather Cieszow

    Today, 18 July, Wednesday

    Time Temperature Precipitation Wind Pressure Humidity
    00:00 +17°C° 0.1 mm 4 mps 724 mmHg 94%
    01:00 +17°C° 0 mm 4 mps 723 mmHg 95%
    02:00 +16°C° 0.2 mm 5 mps 723 mmHg 94%
    03:00 +16°C° 0.2 mm 5 mps 723 mmHg 94%
    04:00 +16°C° 0.2 mm 5 mps 723 mmHg 94%
    05:00 +16°C° 0.6 mm 6 mps 723 mmHg 93%
    06:00 +16°C° 0.6 mm 6 mps 724 mmHg 93%
    07:00 +16°C° 0 mm 6 mps 724 mmHg 92%
    08:00 +17°C° 0.6 mm 6 mps 724 mmHg 92%
    09:00 +17°C° 0.6 mm 6 mps 725 mmHg 91%
    10:00 +17°C° 0.6 mm 6 mps 725 mmHg 90%
    11:00 +17°C° 0.3 mm 6 mps 725 mmHg 89%
    12:00 +19°C° 0.3 mm 6 mps 726 mmHg 87%
    13:00 +17°C° 0 mm 6 mps 726 mmHg 88%
    14:00 +19°C° 0.2 mm 6 mps 726 mmHg 86%
    15:00 +19°C° 0.2 mm 6 mps 726 mmHg 83%
    16:00 +20°C° 0.2 mm 6 mps 726 mmHg 81%
    17:00 +20°C° 0.1 mm 5 mps 727 mmHg 82%
    18:00 +19°C° 0.1 mm 4 mps 727 mmHg 84%
    19:00 +19°C° 0.1 mm 3 mps 727 mmHg 85%
    20:00 +18°C° 0.1 mm 3 mps 727 mmHg 88%
    21:00 +18°C° 0.1 mm 3 mps 727 mmHg 90%
    22:00 +17°C° 0.1 mm 3 mps 727 mmHg 92%
    23:00 +17°C° 0 mm 3 mps 727 mmHg 93%

    Tomorrow, 19 July, Thursday

    Time Temperature Precipitation Wind Pressure Humidity
    00:00 +16°C° 0 mm 3 mps 727 mmHg 94%
    01:00 +16°C° 0 mm 3 mps 727 mmHg 95%
    02:00 +16°C° 0 mm 3 mps 727 mmHg 95%
    03:00 +16°C° 0 mm 3 mps 727 mmHg 95%
    04:00 +16°C° 0 mm 3 mps 727 mmHg 95%
    05:00 +15°C° 0 mm 4 mps 727 mmHg 93%
    06:00 +16°C° 0 mm 5 mps 728 mmHg 90%
    07:00 +17°C° 0 mm 5 mps 728 mmHg 87%
    08:00 +17°C° 0.1 mm 5 mps 728 mmHg 84%
    09:00 +19°C° 0.1 mm 5 mps 728 mmHg 82%
    10:00 +20°C° 0.1 mm 6 mps 728 mmHg 79%
    11:00 +20°C° 0.2 mm 5 mps 728 mmHg 80%
    12:00 +20°C° 0.2 mm 5 mps 728 mmHg 80%
    13:00 +20°C° 0.2 mm 5 mps 728 mmHg 81%
    14:00 +20°C° 0.1 mm 5 mps 728 mmHg 81%
    15:00 +20°C° 0.1 mm 5 mps 728 mmHg 81%
    16:00 +20°C° 0.1 mm 5 mps 728 mmHg 81%
    17:00 +19°C° 0 mm 5 mps 728 mmHg 82%
    18:00 +19°C° 0 mm 4 mps 728 mmHg 83%
    19:00 +19°C° 0 mm 3 mps 728 mmHg 84%
    20:00 +18°C° 0 mm 3 mps 728 mmHg 87%
    21:00 +17°C° 0 mm 2 mps 728 mmHg 89%
    22:00 +17°C° 0 mm 2 mps 728 mmHg 92%
    23:00 +16°C° 0 mm 2 mps 728 mmHg 91%

    Day after tomorrow, 20 July, Friday

    Time Temperature Precipitation Wind Pressure Humidity
    00:00 +16°C° 0 mm 2 mps 728 mmHg 91%
    01:00 +16°C° 0 mm 2 mps 728 mmHg 91%
    02:00 +15°C° 0 mm 2 mps 728 mmHg 91%
    03:00 +15°C° 0 mm 2 mps 728 mmHg 92%
    04:00 +14°C° 0 mm 2 mps 728 mmHg 92%
    05:00 +15°C° 0 mm 2 mps 728 mmHg 86%
    06:00 +17°C° 0 mm 3 mps 728 mmHg 79%
    07:00 +18°C° 0 mm 3 mps 729 mmHg 73%
    08:00 +19°C° 0 mm 3 mps 729 mmHg 66%
    09:00 +21°C° 0 mm 3 mps 729 mmHg 59%
    10:00 +22°C° 0 mm 3 mps 729 mmHg 52%
    11:00 +24°C° 0 mm 3 mps 729 mmHg 49%
    12:00 +25°C° 0 mm 3 mps 728 mmHg 46%
    13:00 +26°C° 0 mm 3 mps 728 mmHg 43%
    14:00 +26°C° 0 mm 3 mps 728 mmHg 43%
    15:00 +26°C° 0 mm 3 mps 728 mmHg 42%
    16:00 +26°C° 0 mm 2 mps 727 mmHg 42%
    17:00 +25°C° 0 mm 2 mps 727 mmHg 48%
    18:00 +23°C° 0 mm 2 mps 727 mmHg 54%
    19:00 +22°C° 0 mm 1 mps 727 mmHg 60%
    20:00 +20°C° 0 mm 1 mps 727 mmHg 62%
    21:00 +19°C° 0 mm 1 mps 727 mmHg 65%
    22:00 +16°C° 0 mm 1 mps 727 mmHg 67%
    23:00 +16°C° 0 mm 1 mps 727 mmHg 68%

    21 July, Saturday

    Time Temperature Precipitation Wind Pressure Humidity
    00:00 +16°C° 0 mm 1 mps 727 mmHg 69%
    01:00 +15°C° 0 mm 1 mps 726 mmHg 69%
    02:00 +15°C° 0 mm 1 mps 726 mmHg 70%
    03:00 +15°C° 0 mm 1 mps 726 mmHg 70%
    04:00 +15°C° 0 mm 1 mps 726 mmHg 71%
    05:00 +16°C° 0 mm 1 mps 726 mmHg 68%
    06:00 +19°C° 0 mm 1 mps 726 mmHg 65%
    07:00 +21°C° 0 mm 1 mps 726 mmHg 62%
    08:00 +22°C° 0 mm 1 mps 727 mmHg 57%
    09:00 +24°C° 0 mm 1 mps 727 mmHg 52%
    10:00 +26°C° 0 mm 1 mps 727 mmHg 48%
    11:00 +26°C° 0 mm 1 mps 727 mmHg 46%
    12:00 +27°C° 0 mm 1 mps 727 mmHg 44%
    13:00 +27°C° 0 mm 1 mps 726 mmHg 43%
    14:00 +27°C° 0 mm 1 mps 726 mmHg 43%
    15:00 +27°C° 0 mm 1 mps 726 mmHg 44%
    16:00 +27°C° 0 mm 1 mps 726 mmHg 45%
    17:00 +26°C° 0 mm 1 mps 726 mmHg 50%
    18:00 +25°C° 0 mm 1 mps 725 mmHg 56%
    19:00 +23°C° 0 mm 1 mps 725 mmHg 62%
    20:00 +22°C° 0 mm 1 mps 725 mmHg 64%
    21:00 +21°C° 0 mm 1 mps 725 mmHg 67%
    22:00 +20°C° 0 mm 1 mps 725 mmHg 69%
    23:00 +19°C° 0 mm 1 mps 725 mmHg 71%

    22 July, Sunday

    Time Temperature Precipitation Wind Pressure Humidity
    00:00 +19°C° 0 mm 1 mps 725 mmHg 73%
    01:00 +18°C° 0 mm 1 mps 725 mmHg 76%
    02:00 +18°C° 0 mm 1 mps 725 mmHg 77%
    03:00 +18°C° 0 mm 1 mps 725 mmHg 78%
    04:00 +15°C° 0 mm 0 mps 725 mmHg 79%
    05:00 +17°C° 0 mm 0 mps 725 mmHg 76%
    06:00 +20°C° 0 mm 1 mps 725 mmHg 73%
    07:00 +21°C° 0 mm 1 mps 725 mmHg 71%
    08:00 +22°C° 0.1 mm 1 mps 725 mmHg 67%
    09:00 +23°C° 0.1 mm 1 mps 726 mmHg 64%
    10:00 +24°C° 0.1 mm 1 mps 726 mmHg 60%
    11:00 +25°C° 0.4 mm 1 mps 725 mmHg 58%
    12:00 +26°C° 0.4 mm 2 mps 725 mmHg 56%
    13:00 +26°C° 0.4 mm 2 mps 725 mmHg 54%
    14:00 +26°C° 0.4 mm 3 mps 725 mmHg 54%
    15:00 +26°C° 0.4 mm 3 mps 725 mmHg 54%
    16:00 +26°C° 0.4 mm 3 mps 725 mmHg 54%
    17:00 +25°C° 0.1 mm 3 mps 725 mmHg 59%
    18:00 +23°C° 0.1 mm 2 mps 725 mmHg 64%
    19:00 +21°C° 0.1 mm 2 mps 725 mmHg 68%
    20:00 +20°C° 0 mm 2 mps 726 mmHg 70%
    21:00 +20°C° 0 mm 1 mps 726 mmHg 72%
    22:00 +19°C° 0 mm 1 mps 726 mmHg 73%
    23:00 +18°C° 0 mm 1 mps 726 mmHg 74%

    23 July, Monday

    Time Temperature Precipitation Wind Pressure Humidity
    00:00 +18°C° 0 mm 1 mps 727 mmHg 75%
    01:00 +16°C° 0 mm 1 mps 727 mmHg 76%
    02:00 +16°C° 0 mm 1 mps 727 mmHg 77%
    03:00 +15°C° 0 mm 1 mps 727 mmHg 78%
    04:00 +15°C° 0 mm 1 mps 727 mmHg 79%
    05:00 +18°C° 0 mm 1 mps 727 mmHg 75%
    06:00 +18°C° 0 mm 2 mps 728 mmHg 72%
    07:00 +20°C° 0 mm 2 mps 728 mmHg 68%
    08:00 +21°C° 0.1 mm 2 mps 728 mmHg 65%
    09:00 +23°C° 0.1 mm 2 mps 729 mmHg 61%
    10:00 +25°C° 0.1 mm 3 mps 729 mmHg 58%
    11:00 +25°C° 0.2 mm 3 mps 729 mmHg 57%
    12:00 +25°C° 0.2 mm 3 mps 729 mmHg 56%
    13:00 +26°C° 0.2 mm 3 mps 728 mmHg 56%
    14:00 +26°C° 0.1 mm 3 mps 728 mmHg 55%
    15:00 +26°C° 0.1 mm 3 mps 728 mmHg 54%
    16:00 +26°C° 0.1 mm 4 mps 728 mmHg 52%
    17:00 +25°C° 0 mm 3 mps 728 mmHg 57%
    18:00 +24°C° 0 mm 2 mps 728 mmHg 62%
    19:00 +23°C° 0 mm 1 mps 728 mmHg 67%
    20:00 +21°C° 0 mm 1 mps 729 mmHg 70%
    21:00 +20°C° 0 mm 1 mps 729 mmHg 73%
    22:00 +19°C° 0 mm 1 mps 729 mmHg 76%
    23:00 +18°C° 0 mm 1 mps 729 mmHg 77%
    Show more